Location: OHP
(43.9325°N, 5.7154°E)
Time: 01:25:24
(UTC+01:00)

Tianhe-1 - Visible Passes

Search period start: 23 June 2021 00:00
Search period end: 03 July 2021 00:00
Orbit: 375 x 385 km, 41.5° (Epoch: 22 June)

Date Brightness Start Highest point End Pass type
(mag) Time Alt. Az. Time Alt. Az. Time Alt. Az.
23 Jun 3.5 02:26:37 14° ESE 02:26:37 14° ESE 02:27:24 10° ESE visible
23 Jun 1.5 03:58:44 11° WSW 04:01:32 45° S 04:04:35 10° E visible
24 Jun 1.8 03:00:13 34° S 03:00:29 35° SSE 03:03:23 10° E visible
25 Jun 3.7 02:01:36 12° ESE 02:01:36 12° ESE 02:01:59 10° ESE visible
25 Jun 1.2 03:33:42 18° WSW 03:35:46 52° S 03:38:50 10° E visible
26 Jun 1.8 02:35:00 39° SE 02:35:00 39° SE 02:37:27 10° E visible
26 Jun 1.3 04:07:55 10° W 04:10:58 50° S 04:14:01 10° ESE visible
27 Jun 1.1 03:08:22 32° WSW 03:09:30 54° S 03:12:34 10° ESE visible
28 Jun 2.9 02:09:40 22° ESE 02:09:40 22° ESE 02:10:58 10° E visible
28 Jun 1.4 03:41:45 12° W 03:44:25 42° SSW 03:47:25 10° ESE visible
29 Jun 1.4 02:43:10 46° SSE 02:43:10 46° SSE 02:45:48 10° ESE visible
29 Jun 2.3 04:16:33 10° WSW 04:19:06 23° SSW 04:21:39 10° SSE visible
30 Jun 1.7 03:16:56 31° SW 03:17:22 33° SSW 03:20:13 10° SE visible
01 Jul 2.7 03:51:14 16° SW 03:51:43 16° SSW 03:53:46 10° SSE visible
